www.pogodaiklimat.ru

Погода и климат >> Архив погоды >> Норвегия >> Бодо


ПОГОДА в Бодо

  • Прогноз погоды в Бодо
  • Монитор погоды в Бодо

АРХИВ ПОГОДЫ в Бодо

Время (UTC), дата Ветер
(напр.,м/с)
 
Видим.   Явления Облачность Т
(С)
Тd
(С)
f
(%)
Тe
(С)
Тes
(С)
Комфортность P
(гПа)
Po
(гПа)
Тmin
(С)
Tmax
(С)
R
(мм)
R24
(мм)
S
(см)
13 14.07 СЗ 2
{5}
н/о н/о +12.7 +9.2 79 +12 +12 1015.9 1014.3
14 14.07 С 2
{4}
н/о н/о +12.9 +8.8 76 +12 +12 1015.8 1014.2
15 14.07 ЮЗ 2
{5}
40 км {морось} 9/9 100 м
[Cu Sc]
+12.2 +8.9 80 +11 +12 1015.6 1014.0
16 14.07 ЮЗ 6
{9}
н/о н/о +10.6 +8.5 87 +7 +7 1015.5 1013.9
17 14.07 З 2
{10}
н/о н/о +10.7 +9.5 92 +9 +9 1015.2 1013.6
18 14.07 З 4
{10}
8000 м дождь {морось} 10/10 50 м
[Sc]
+9.3 +8.5 95 +6 +6 1015.4 1013.8 +9.3 +13.0 1
19 14.07 З 2
{5}
н/о н/о +10.0 +8.8 92 +8 +8 1015.3 1013.7
20 14.07 З 2
{4}
н/о н/о +9.9 +8.8 93 +8 +8 1015.1 1013.5
21 14.07 З 2
{4}
25 км в посл. час дождь {морось} 10/10 50 м
[Sc]
+9.6 +8.5 93 +8 +8 1015.0 1013.4
22 14.07 ЮЗ 2
{3}
н/о н/о +9.5 +8.0 90 +8 +8 1014.9 1013.3
23 14.07 ЮЗ 4
{5}
н/о н/о +9.1 +7.1 87 +6 +6 1014.7 1013.1
00 15.07 ЮЗ 3
{5}
40 км {дождь, морось} 10/10 100 м
[Cu Sc]
+9.1 +7.4 89 +7 +7 1014.5 1012.9 1
01 15.07 ЮЗ 4
{6}
н/о н/о +8.8 +7.4 91 +6 +6 1014.4 1012.8
02 15.07 ЮЗ 3
{5}
н/о н/о +8.7 +7.2 90 +6 +6 1014.2 1012.6
03 15.07 ЮЗ 4
{6}
40 км 10/8 100 м
[Cu Sc Ac As]
+8.9 +7.2 89 +6 +6 1014.3 1012.7
04 15.07 ЮЗ 3
{5}
н/о н/о +9.2 +7.3 88 +7 +7 1014.2 1012.6
05 15.07 Ю 2
{4}
н/о н/о +9.9 +7.3 84 +8 +8 1014.1 1012.5
06 15.07 Ю 2
{6}
45 км 9/8 300 м
[Cu Sc Ac As]
+10.2 +7.1 81 +9 +9 1014.0 1012.4 +8.7 +10.4 1
07 15.07 ЮЗ 2
{4}
н/о н/о +10.7 +7.0 78 +9 +9 1013.8 1012.2
08 15.07 З 2
{3}
н/о н/о +10.8 +7.3 79 +10 +10 1014.0 1012.4
09 15.07 СЗ 2
{3}
55 км 9/9 300 м
[Cu Sc]
+11.4 +7.3 76 +10 +11 1014.0 1012.4
10 15.07 З 2
{4}
н/о н/о +11.2 +7.7 79 +10 +10 1014.0 1012.4
11 15.07 З 2
{4}
н/о н/о +12.1 +7.6 74 +11 +11 1014.1 1012.5
12 15.07 СЗ 3
{5}
60 км 10/10 600 м
[Cu Sc]
+11.2 +7.5 78 +9 +9 1014.3 1012.7
13 15.07 СЗ 3
{5}
н/о н/о +11.5 +7.4 76 +10 +10 1014.4 1012.8
14 15.07 С 3
{5}
н/о н/о +11.5 +8.0 79 +10 +10 1014.5 1012.9
15 15.07 С 3
{5}
60 км 10/8 300 м
[Cu Sc Ac As]
+11.9 +8.2 78 +10 +11 1014.3 1012.7
16 15.07 З 2
{4}
н/о н/о +12.0 +8.7 80 +11 +11 1014.3 1012.8
17 15.07 З 2
{4}
н/о н/о +12.0 +8.5 79 +11 +11 1014.4 1012.8
18 15.07 С 3
{6}
60 км 9/8 300 м
[Cu Sc Ac As]
+12.4 +8.5 77 +11 +11 1014.5 1012.9 +10.3 +12.5
19 15.07 С 3
{6}
н/о н/о +12.0 +8.3 78 +10 +10 1014.5 1012.9
20 15.07 СЗ 2
{5}
н/о н/о +11.9 +8.4 79 +11 +11 1014.8 1013.2
21 15.07 З 2
{4}
60 км 9/9 300 м
[Cu Sc]
+11.6 +8.1 79 +11 +11 1015.1 1013.5
22 15.07 С 3
{5}
н/о н/о +11.5 +8.2 80 +10 +10 1015.2 1013.6
23 15.07 С 3
{6}
н/о н/о +11.3 +7.6 78 +10 +10 1015.3 1013.7
00 16.07 С 2
{6}
55 км 5/1 300 м
[Sc Ac trans Ci sp]
+10.4 +7.5 82 +9 +9 1015.5 1013.9
01 16.07 СЗ 2
{5}
н/о н/о +9.6 +7.6 87 +8 +8 1015.8 1014.2
02 16.07 С 1
{5}
н/о н/о +9.9 +7.7 86 +9 +9 1016.0 1014.4
03 16.07 штиль 0
{2}
55 км 8/1 300 м
[Sc Ac trans Ci fib]
+9.9 +7.8 87 +9 +10 1016.1 1014.5
04 16.07 СЗ 1
{2}
н/о н/о +11.1 +8.2 82 +11 +11 1016.2 1014.6
05 16.07 С 3
{5}
н/о н/о +11.0 +6.9 76 +9 +9 1016.4 1014.8
06 16.07 С 3
{5}
70 км 4/1 600 м
[Cu Sc Ac trans Ci fib]
+12.6 +7.1 69 +11 +14 1016.5 1014.9 +9.5 +12.8
07 16.07 СЗ 2
{4}
н/о н/о +13.2 +7.4 68 +13 +13 1016.5 1014.9
08 16.07 СЗ 2
{5}
н/о н/о +13.3 +7.5 68 +13 +13 1016.6 1015.0
09 16.07 СЗ 3
{5}
70 км 4/3 600 м
[Cu Sc Ac trans Ci sp]
+12.6 +7.3 70 +11 +16 1016.8 1015.2
10 16.07 СЗ 3
{5}
н/о н/о +13.8 +8.0 68 +13 +13 1016.8 1015.2
11 16.07 С 4
{6}
н/о н/о +13.4 +7.4 67 +12 +12 1016.8 1015.2
12 16.07 СЗ 3
{6}
70 км 8/1 600 м
[Cu hum Ac trans Ci sp]
+12.7 +7.2 69 +11 +16 1016.8 1015.2
13 16.07 С 3
{5}
н/о н/о +12.5 +7.0 69 +11 +11 1016.8 1015.3
14 16.07 СЗ 3
{6}
н/о н/о +12.8 +7.1 68 +12 +12 1017.0 1015.5
15 16.07 С 3
{5}
70 км осадки на расстоянии 9/1 600 м
[Cu hum Ac As Ci sp]
+12.5 +6.6 67 +11 +14 1017.0 1015.4
16 16.07 З 3
{4}
н/о н/о +12.1 +7.2 72 +11 +11 1017.1 1015.5
17 16.07 З 3
{5}
н/о н/о +11.7 +7.2 74 +10 +10 1017.1 1015.5
18 16.07 З 2
{6}
70 км {ливн. осадки} 9/4 600 м
[Sc Ac As]
+11.9 +7.2 73 +11 +11 1016.9 1015.3 +11.6 +14.3 0.0
19 16.07 З 2
{3}
н/о н/о +12.0 +7.5 74 +11 +11 1016.7 1015.1
20 16.07 З 1
{3}
н/о н/о +11.1 +7.6 79 +11 +11 1016.6 1015.0
21 16.07 ЮЗ 2
{3}
70 км 9/6 600 м
[Sc Ac trans Ci sp]
+10.5 +7.9 84 +9 +9 1016.6 1015.0
22 16.07 ЮЗ 2
{2}
н/о н/о +10.1 +7.5 84 +9 +9 1016.6 1015.0
23 16.07 ЮВ 1
{3}
н/о н/о +10.2 +7.3 82 +10 +10 1016.4 1014.8
00 17.07 ЮВ 1
{3}
>70 км 9/5 1000 м
[Cu Sc Ac trans Ci sp]
+10.1 +7.5 84 +10 +10 1016.4 1014.8
01 17.07 З 2
{2}
н/о н/о +10.1 +7.9 86 +9 +9 1016.2 1014.6
02 17.07 С 3
{5}
н/о н/о +10.7 +6.5 75 +9 +9 1016.0 1014.4
03 17.07 С 2
{5}
>70 км 8/5 600 м
[Cu Sc Ac trans Ci fib]
+10.9 +6.9 76 +10 +10 1015.8 1014.2
04 17.07 С 2
{5}
н/о н/о +11.4 +6.9 74 +10 +10 1015.6 1014.0
05 17.07 С 3
{6}
н/о н/о +11.9 +6.0 67 +10 +10 1015.5 1013.9
06 17.07 С 4
{6}
>70 км 3/1 600 м
[Cu Sc Ac As Ci sp]
+12.2 +6.3 67 +10 +12 1015.3 1013.7 +9.9 +12.5
07 17.07 С 2
{5}
н/о н/о +13.2 +5.9 61 +13 +13 1015.2 1013.6
08 17.07 С 3
{5}
н/о н/о +13.2 +5.9 61 +12 +12 1015.2 1013.6
09 17.07 СЗ 3
{5}
>70 км 3/1 600 м
[Cu Sc Ac As Ci sp]
+13.1 +5.5 60 +12 +18 1015.1 1013.5
10 17.07 СЗ 4
{6}
н/о н/о +13.1 +6.5 64 +12 +12 1015.1 1013.5
11 17.07 С 2
{5}
н/о н/о +13.7 +6.8 63 +13 +13 1014.9 1013.3
12 17.07 С 4
{7}
>70 км 1/1 600 м
[Cu med, cong Ac trans]
+14.2 +7.0 62 +13 +19 1014.7 1013.1
13 17.07 С 4
{7}
н/о н/о +13.9 +6.0 59 +13 +13 1014.5 1012.9
14 17.07 С 4
{6}
н/о н/о +14.2 +6.6 60 +13 +13 1014.3 1012.7
15 17.07 С 3
{6}
>70 км 3/1 600 м
[Cu med, cong Ci sp]
+13.7 +6.3 61 +13 +17 1014.1 1012.5
16 17.07 СЗ 3
{6}
н/о н/о +13.9 +6.8 62 +13 +13 1014.0 1012.4
17 17.07 С 3
{5}
н/о н/о +13.7 +6.6 62 +13 +13 1013.8 1012.2
18 17.07 С 3
{7}
>70 км 1/1 600 м
[Cu med, cong Ci sp]
+13.1 +6.9 66 +12 +13 1013.5 1012.0 +12.2 +14.9
19 17.07 С 3
{6}
н/о н/о +12.6 +7.3 70 +11 +11 1013.3 1011.7
20 17.07 С 3
{6}
н/о н/о +12.0 +7.3 73 +10 +10 1013.1 1011.5
21 17.07 С 2
{4}
>70 км 5/0
[Ac trans Ci sp]
+11.0 +7.9 81 +10 +10 1013.0 1011.4
22 17.07 С 2
{4}
н/о н/о +10.3 +7.9 85 +9 +9 1013.1 1011.5
23 17.07 СВ 1
{3}
н/о н/о +8.3 +6.4 88 +7 +7 1012.9 1011.3
00 18.07 СВ 2
{6}
>70 км 3/0 2000 м
[Ac trans Ci sp]
+6.8 +5.3 90 +4 +4 1012.7 1011.1
01 18.07 СВ 1
{2}
н/о н/о +6.5 +5.5 93 +5 +5 1012.4 1010.8
02 18.07 В 2
{4}
н/о н/о +8.0 +6.8 92 +6 +6 1012.2 1010.6
03 18.07 С 1
{4}
>70 км 3/1 1000 м
[Cu Sc Ci sp]
+10.2 +7.6 84 +10 +10 1011.8 1010.2
04 18.07 В 2
{3}
н/о н/о +12.3 +8.4 77 +11 +11 1011.7 1010.1
05 18.07 В 5
{8}
н/о н/о +14.4 +8.4 67 +13 +13 1011.4 1009.9
06 18.07 В 5
{8}
>70 км 1/1 1500 м
[Cu hum Ci fib]
+15.9 +8.4 61 +15 +17 1011.4 1009.8 +6.3 +15.9
07 18.07 В 6
{9}
н/о н/о +17.4 +8.8 57 +17 +17 1011.2 1009.6
08 18.07 В 6
{8}
н/о н/о +18.3 +8.9 54 +18 +18 1011.1 1009.6
09 18.07 В 5
{8}
>70 км 1/1 1500 м
[Cu hum]
+19.7 +9.3 51 +21 +25 комфорт 1011.0 1009.5
10 18.07 В 5
{7}
н/о н/о +19.1 +9.0 52 +20 +20 1010.9 1009.4
11 18.07 СЗ 3
{6}
н/о н/о +19.5 +9.7 53 +21 +21 комфорт 1010.9 1009.4
12 18.07 СЗ 3
{9}
>70 км 3/3 1500 м
[Cu hum Ci fib]
+20.8 +10.0 50 +23 +29 комфорт 1010.7 1009.2
13 18.07 СЗ 3
{6}
н/о н/о +20.8 +9.4 48 +23 +23 комфорт 1010.7 1009.2
14 18.07 С 3
{6}
н/о н/о +21.2 +9.5 47 +23 +23 комфорт 1010.5 1009.0
15 18.07 С 3
{6}
>70 км 3/3 1500 м
[Cu hum Ci fib]
+21.6 +9.2 45 +23 +26 комфорт 1010.2 1008.7
16 18.07
{6}
н/о н/о +21.6 +8.8 44 1010.0 1008.5
17 18.07 С 3
{6}
н/о н/о +21.7 +8.9 44 +23 +23 комфорт 1009.8 1008.3
18 18.07 В 5
{8}
>70 км 3/3 1500 м
[Cu Sc Ci fib]
+21.0 +9.0 46 +23 +23 комфорт 1009.7 1008.2 +15.9 +22.2
19 18.07 СВ 7
{9}
н/о н/о +19.2 +8.8 51 +19 +19 1009.7 1008.1
20 18.07 В 7
{10}
н/о н/о +18.4 +8.4 52 +18 +18 1010.0 1008.5
21 18.07 В 7
{10}
>70 км 3/1 1500 м
[Cu Sc Ac As Ci fib]
+17.2 +8.6 57 +16 +16 1010.3 1008.8
22 18.07 В 6
{10}
н/о н/о +16.9 +8.6 58 +16 +16 1010.5 1009.0
23 18.07 В 7
{11}
н/о н/о +16.4 +8.9 61 +15 +15 1010.6 1009.0
00 19.07 В 7
{11}
>70 км 1/1 1500 м
[Cu hum Ac trans Ci fib]
+16.2 +8.7 61 +15 +15 1010.6 1009.0
01 19.07 В 8
{11}
н/о н/о +16.1 +8.8 62 +15 +15 1010.4 1008.8
02 19.07 В 8
{12}
н/о н/о +15.6 +8.6 63 +14 +14 1010.4 1008.8
03 19.07 В 9
{12}
>70 км 1/1 1500 м
[Cu hum]
+16.0 +8.7 62 +14 +14 1010.1 1008.5
04 19.07 В 9
{13}
н/о н/о +16.7 +9.2 61 +15 +15 1010.0 1008.4
05 19.07 В 9
{13}
н/о н/о +17.7 +9.6 59 +17 +17 1009.8 1008.3
06 19.07 В 8
{13}
>70 км 1/1 1500 м
[Cu hum Ci sp]
+18.8 +10.1 57 +19 +19 1009.7 1008.1 +15.5 +21.0
07 19.07 В 8
{11}
н/о н/о +19.9 +10.6 55 +21 +21 комфорт 1009.6 1008.1
08 19.07 В 7
{11}
н/о н/о +21.2 +11.5 54 +23 +23 комфорт 1009.4 1007.9
09 19.07 В 7
{10}
>70 км 1/1 1500 м
[Cu hum Ci fib]
+21.9 +11.6 52 +24 +26 комфорт 1009.3 1007.8
10 19.07 В 8
{12}
н/о н/о +22.3 +11.7 51 +25 +25 комфорт 1009.2 1007.7
11 19.07 В 8
{12}
н/о н/о +22.8 +11.5 49 +25 +25 комфорт 1009.2 1007.7
12 19.07 В 7
{12}
>70 км 3/1 1500 м
[Cu hum Ci fib]
+23.4 +11.5 47 +26 +28 жарко 1009.2 1007.7
13 19.07 В 7
{11}
н/о н/о +23.8 +11.8 47 +25 +25 комфорт 1009.4 1007.8
14 19.07 В 6
{10}
н/о н/о +23.6 +11.6 47 +25 +25 комфорт 1009.6 1008.0
15 19.07 З 2
{8}
>70 км 1/1 1500 м
[Cu hum Ci fib]
+21.9 +11.9 53 +24 +29 комфорт 1009.8 1008.3
17 19.07 В 4
{7}
н/о н/о +22.2 +11.9 52 +25 +25 комфорт 1009.6 1008.0
18 19.07 В 2
{11}
>70 км 1/1 1500 м
[Cu hum Ci fib]
+21.2 +11.8 55 +23 +24 комфорт 1009.7 1008.2 +18.8 +24.1
19 19.07 В 1
{2}
н/о н/о +20.9 +12.3 58 +24 +24 комфорт 1009.8 1008.3
20 19.07 В 3
{4}
н/о н/о +18.9 +11.7 63 +20 +20 1009.9 1008.3
21 19.07 В 4
{6}
>70 км 3/1 1500 м
[Cu med, cong Ac trans Ci fib]
+17.5 +11.5 68 +17 +17 1010.1 1008.5
22 19.07 В 4
{6}
н/о н/о +17.0 +11.1 68 +17 +17 1010.3 1008.8
23 19.07 В 3
{5}
н/о н/о +15.2 +11.0 76 +15 +15 1010.7 1009.2
00 20.07 В 2
{6}
55 км 4/3 1500 м
[Cu Sc Ac cuf]
+15.1 +10.9 76 +15 +15 1011.1 1009.6
01 20.07 ЮЗ 2
{5}
н/о н/о +14.9 +11.5 80 +15 +15 1011.9 1010.3
02 20.07 ЮЗ 5
{8}
н/о н/о +14.5 +12.5 88 +13 +13 1012.0 1010.4
03 20.07 З 3
{6}
>70 км 9/1 200 м
[Sc Ac As]
+13.4 +12.5 94 +12 +12 1012.6 1011.0
04 20.07 З 3
{5}
н/о н/о +13.3 +12.2 93 +12 +12 1012.9 1011.3
05 20.07 З 2
{5}
н/о н/о +13.3 +12.0 92 +13 +13 1013.1 1011.5
06 20.07 З 3
{8}
>70 км 8/3 200 м
[Cu Sc Ac trans]
+14.3 +12.2 87 +13 +14 1013.3 1011.7 +13.2 +21.2
07 20.07 З 3
{6}
н/о н/о +15.2 +12.3 83 +14 +14 1013.7 1012.1
08 20.07 З 3
{4}
н/о н/о +15.7 +12.5 81 +15 +15 1013.7 1012.2
09 20.07 З 2
{5}
>70 км 8/1 300 м
[Cu hum Ac trans Ci sp]
+14.9 +11.9 82 +15 +20 1013.9 1012.3
10 20.07 З 3
{5}
н/о н/о +15.8 +12.7 82 +15 +15 1014.1 1012.5
11 20.07 З 3
{5}
н/о н/о +16.6 +12.8 78 +16 +16 1014.4 1012.8
12 20.07 З 3
{6}
>70 км 9/3 100 м
[Cu Sc Ac trans Ci sp]
+15.2 +12.2 82 +14 +18 1014.8 1013.2
13 20.07 С 2
{5}
н/о н/о +15.0 +12.5 85 +15 +15 1014.6 1013.0
14 20.07 В 2
{5}
н/о н/о +15.6 +12.7 83 +15 +15 1014.2 1012.6
15 20.07 СЗ 2
{5}
50 км 8/3 100 м
[Cb cap Ac trans Ci sp]
+16.8 +9.5 62 +17 +20 1014.0 1012.5
16 20.07 СЗ 3
{5}
н/о н/о +16.5 +10.4 67 +16 +16 1013.8 1012.2
17 20.07
{6}
н/о н/о +17.6 +11.2 66 1013.4 1011.8
18 20.07 С 2
{6}
70 км 3/1 300 м
[Cu Sc Ac trans Ci sp]
+17.8 +11.8 68 +18 +19 1013.1 1011.6 +14.2 +18.3
19 20.07 СЗ 2
{3}
н/о н/о +16.3 +9.5 64 +16 +16 1013.0 1011.4
20 20.07 С 1
{3}
н/о н/о +15.7 +11.1 74 +16 +16 1012.7 1011.1
21 20.07 СВ 1
{2}
70 км 6/1 50 м
[St Ac trans Ci sp]
+13.3 +10.5 83 +13 +13 1012.7 1011.1
22 20.07 В 1
{2}
н/о н/о +12.2 +10.6 90 +12 +12 1012.3 1010.7
23 20.07 ЮЗ 2
{2}
н/о н/о +11.9 +11.0 94 +11 +11 1012.2 1010.6
00 21.07 В 1
{3}
>70 км 6/0
[Ac trans Ci sp]
+11.7 +10.9 95 +11 +11 1011.7 1010.1
01 21.07 В 4
{7}
н/о н/о +16.1 +12.5 79 +15 +15 1011.1 1009.6
02 21.07 В 6
{8}
н/о н/о +17.1 +12.0 72 +16 +16 1010.7 1009.1
03 21.07 В 7
{10}
>70 км 8/0
[Ac trans Ci sp]
+18.2 +11.8 66 +18 +18 1010.3 1008.8
04 21.07 В 7
{11}
н/о н/о +19.0 +12.0 64 +19 +19 1010.2 1008.7
05 21.07 В 8
{12}
н/о н/о +18.7 +12.0 65 +19 +19 1010.1 1008.6
06 21.07 В 7
{12}
>70 км 9/0 2000 м
[Ac As Cs]
+20.0 +12.3 61 +21 +22 комфорт 1010.1 1008.6 +11.3 +20.0
07 21.07 В 6
{10}
н/о н/о +21.2 +12.9 59 +23 +23 комфорт 1010.0 1008.5
08 21.07 В 6
{9}
н/о н/о +21.5 +13.4 60 +24 +24 комфорт 1010.2 1008.7
09 21.07 В 4
{7}
70 км 10/1 1000 м
[Sc Ac As Cs]
+22.4 +13.7 58 +26 +28 жарко 1010.4 1008.9
10 21.07 В 3
{6}
н/о н/о +21.8 +14.5 63 +25 +25 комфорт 1010.7 1009.1
11 21.07 В 3
{6}
н/о н/о +20.9 +15.2 70 +24 +24 комфорт 1010.7 1009.2
12 21.07 В 4
{10}
70 км осадки на расстоянии {ливн. осадки} 9/1 1000 м
[Sc Ac As Cs]
+21.1 +13.8 63 +24 +27 комфорт 1010.7 1009.2 0.2

 

Местоположение метеостанции Бодо (Норвегия): широта 67.27 долгота 14.36 высота над уровнем моря 13 м.

В архиве по умолчанию представлена погода в Бодо за последнюю неделю. Архивные данные за месяц целиком и за предыдущие месяцы, начиная с января 2011 года, Вы можете получить, выбрав интересующий диапазон дат из раскрывающегося списка и нажав кнопку "Ввод!".


*Определитесь, кто Вы:
робот инопланетянин человек

Внимание! Время в таблицах - всемирное. Для получения местного времени необходимо прибавить поправку, которая равна 1 ч.

Смотрите также архив погоды в соседних городах и на ближайших метеорологических станциях:

Погода в Хеллигвере (Норвегия) (24 км)
Погода в Сетсе (Норвегия) (50 км)
Погода в Рейпе (Норвегия) (51 км)
Погода в Салтдале (Норвегия) (55 км)
Погода в Аэропорту Vaeroy Heliport (Норвегия) (82 км)
Погода в Хяртасене (Норвегия) (89 км)
Погода в Сторфоршее (Норвегия) (97 км)
Погода на Маяке Skrova (Норвегия) (99 км)
Погода на Мыкене (Норвегия) (99 км)
Погода в Рост аэропорту (Норвегия) (101 км)

Пояснения к столбцам:

Ветер - указаны скорость ветра в м/с - средняя за 10 мин, порывы в срок и между сроками (в фигурных скобках) и направление, откуда дует ветер: С - северный, СВ - северо-восточный, В - восточный, ЮВ - юго-восточный, Ю - южный, ЮЗ - юго-западный, З - западный, СЗ - северо-западный.
Видимость - горизонтальная дальность видимости в метрах или километрах. При видимости от 1 до 10 км при отсутствии осадков обычно наблюдается дымка, при ухудшении видимости до 1 км и менее - туман. В сухую погоду видимость может ухудшаться дымом, пылью или мглою.
Явления - указаны атмосферные явления, наблюдавшиеся в срок или в последний час перед сроком; фигурными скобками обозначены явления, наблюдавшиеся между сроками (за 1-3 часа до срока); квадратными скобками обозначены град или гололедные отложения с указанием их диаметра в мм.
Облачность - указаны через наклонную черту общая и нижняя облачность в баллах и высота нижней границы облаков в метрах; квадратными скобками обозначены формы облаков: Ci - перистые, Cs - перисто-слоистые, Cc - перисто-кучевые, Ac - высококучевые, As - высокослоистые, Sc - слоисто-кучевые, Ns - слоисто-дождевые, Cu - кучевые, Cb - кучево-дождевые. Подробнее классификацию облаков см. в Атласе облаков (PDF).
T - Температура воздуха - температура, измеренная на высоте 2 м над землей.
Td - Температура точки росы - температура, при понижении до которой содержащийся в воздухе водяной пар достигнет насыщения.
f - Относительная влажность воздуха - влажноcть воздуха, измеренная на высоте 2 м над землей.
Te - Эффективная температура - температура, которую ощущает одетый по сезону человек в тени. Характеристика душности погоды. При расчете учитывается влияние влажности воздуха и скорости ветра на теплоощущения человека.
Tes - Эффективная температура на солнце - температура, которую ощущает человек, с поправкой на солнечный нагрев. Характеристика знойности погоды. Зависит от высоты солнца над горизонтом, облачности и скорости ветра. Ночью, в пасмурную погоду, а также при ветре 12 м/с и более поправка равна нулю.
P - Атмосферное давление - приведенное к уровню моря атмосферное давление.
Po - Атмосферное давление - измеренное на уровне метеостанции атмосферное давление.
Tmin - Минимальная температура - минимум температуры воздуха на высоте 2 м над землей.
Tmax - Максимальная температура - максимум температуры воздуха на высоте 2 м над землей.
R - Количество осадков - Количество выпавших осадков за период времени, мм. При наведении курсора мыши на число - период времени, за который выпало указанное количество осадков.
R24 - Количество осадков - Количество выпавших осадков за 24 часа, мм.
S - Снежный покров - Высота снежного покрова, см. При наведении курсора мыши на число - состояние снежного покрова и степень покрытия местности в баллах.